Home   Weather   Baltimore   Past weeks
Flag for USA

Past Weather in Baltimore, Maryland, USA — Yesterday and Last 2 Weeks

Now
52 °F

Mostly cloudy.


Feels Like: 52 °F
Forecast: 57 / 51 °F
Wind: No wind

Location: Baltimore-Washington International Airport

Current Time: Oct 20, 2019 at 5:19:53 am

Latest Report: Oct 20, 2019 at 3:54 am


Visibility: 10 mi

Pressure: 29.96 "Hg

Humidity: 89%

Dew Point: 49 °F

Location of BaltimoreLocation

Past Weather in Baltimore — Graph

°F

Baltimore Temperature Yesterday

Maximum temperature yesterday: 65 °F (at 2:54 pm)
Minimum temperature yesterday: 40 °F (at 3:54 am)
Average temperature yesterday: 53 °F

High & Low Weather Summary for the Past Weeks

 TemperatureHumidityPressure
High81 °F (Oct 7, 1:54 pm)97% (Oct 14, 5:54 am)30.44 "Hg (Oct 14, 5:54 am)
Low40 °F (Oct 19, 3:54 am)24% (Oct 14, 3:54 pm)29.47 "Hg (Oct 16, 5:54 pm)
Average61 °F63%30.05 "Hg
* Reported Oct 5 3:54 am — Oct 20 3:54 am, Baltimore. Weather by CustomWeather, © 2019

Note: Actual official high and low records may vary slightly from our data, if they occured in-between our weather recording intervals... More about our weather records

Advertising

Baltimore Weather History for the Previous 24 Hours

Scroll right to see more
 ConditionsComfort  
Time TempWeatherWind HumidityBarometerVisibility
3:54 am
Sun, Oct 20
52 °FMostly cloudy.No wind89%29.96 "Hg10 mi
2:54 am53 °FOvercast.3 mph83%29.97 "Hg10 mi
1:54 am51 °FPartly cloudy.No wind89%29.99 "Hg10 mi
12:54 am51 °FPassing clouds.No wind86%30.00 "Hg10 mi
11:54 pm
Sat, Oct 19
51 °FPassing clouds.No wind86%30.01 "Hg10 mi
10:54 pm52 °FPassing clouds.No wind83%30.01 "Hg10 mi
9:54 pm56 °FPassing clouds.No wind72%30.01 "Hg10 mi
8:54 pm56 °FMostly cloudy.No wind70%30.02 "Hg10 mi
7:54 pm57 °FPartly cloudy.3 mph69%30.03 "Hg10 mi
6:54 pm59 °FPartly cloudy.3 mph64%30.01 "Hg10 mi
5:54 pm60 °FBroken clouds.5 mph60%30.02 "Hg10 mi
4:54 pm62 °FPartly sunny.5 mph54%30.02 "Hg10 mi
3:54 pm64 °FPartly sunny.7 mph41%30.03 "Hg10 mi
2:54 pm65 °FPartly sunny.7 mph40%30.04 "Hg10 mi
1:54 pm64 °FBroken clouds.8 mph40%30.06 "Hg10 mi
12:54 pm63 °FBroken clouds.No wind41%30.09 "Hg10 mi
11:54 am60 °FBroken clouds.6 mph46%30.11 "Hg10 mi
10:54 am58 °FScattered clouds.6 mph50%30.11 "Hg10 mi
9:54 am54 °FPassing clouds.5 mph57%30.11 "Hg10 mi
8:54 am48 °FPassing clouds.No wind77%30.12 "Hg10 mi
7:54 am41 °FPassing clouds.No wind86%30.11 "Hg10 mi
6:54 am41 °FPassing clouds.No wind86%30.11 "Hg10 mi
5:54 am42 °FClear.No wind85%30.10 "Hg9 mi
Weather by CustomWeather, © 2019

See weather overview